Weather in Lamutskoye

Russia / Chukotka Autonomous Okrug     65°32′04″N   168°51′13″E
temp.,
°C
wind,
m/s
gust,
m/s
humid.,
%
clouds,
%
prec.,
mm/h
press.,
hPa
HPBL,
m
7 may, fri
fri700:00−5nne3496100 1.4 1019129
03:00−6ne3396100 1.1 1018103
06:00−5ne3496100 2.1 1018273
09:00−4ne4593100 1.1 1017461
12:00−3ne5690100 1.9 1016561
15:00−2ne4588100 0.6 1016573
18:00−1ne3572100 0.9 1015836
21:00−3ne2285100 0.0 101524
8 may, sat
sat800:00−5ne229197 0.0 101615
03:00−8ne3390100 0.0 101727
06:00−11ne339171 0.0 101949
09:00−7ne238323 0.0 1019144
12:00−4ne22774 0.0 1018268
15:00−3ne22765 0.0 1018337
18:00−3ne22784 0.0 1018193
21:00−10ne228817 0.0 101910
9 may, sun
sun900:00−17ne22945 0.0 102110
03:00−19nne22977 0.0 10229
06:00−17nne11947 0.0 102226
09:00−11nw01785 0.0 1021127
12:00−7wnw00676 0.0 1021237
15:00−4n006872 0.0 1020302
18:00−3wnw007549 0.0 1020236
21:00−10ne118755 0.0 102110
10 may, mon
mon1000:00−14ne119427 0.0 102210
03:00−17nne229948 0.0 102310
06:00−15nne119666 0.0 102332
09:00−10nnw118698 0.0 1023142
12:00−6nnw017765 0.0 1021260
15:00−4n007887 0.0 1021300
18:00−3nne118187 0.0 1020238
21:00−9ne119173 0.0 102110
11 may, tue
tue1100:00−14ne229643 0.0 102310
03:00−17ne229957 0.0 10239
06:00−15nne119540 0.0 102336
09:00−9ne11826 0.0 1022147
12:00−5ne227464 0.0 1021270
15:00−3nne227595 0.0 1020315
18:00−2ne2276100 0.0 1020268
21:00−6ne2288100 0.0 102010